Location: Nied?wied?
(53.3665°N, 14.8184°E)
Time: 18:42:26
(UTC+00:00)

ISS - Pass Details

Date: 20 May 2021
Orbit: 417 x 422 km, 51.6° (Epoch: 14 June)

Event Time Altitude Azimuth Distance (km) Brightness Sun altitude
Rises 22:31:43 0° 278° (W) 2,371 0.3 -16.2°
Reaches altitude 10° 22:33:54 10° 271° (W) 1,506 -0.9 -16.3°
Enters shadow 22:36:59 39° 205° (SSW) 642 -3.3 -16.3°
